Location: Chiroubles
(46.1812°N, 4.6660°E)
Time: 06:30:29
(UTC+00:00)

Transit 4A - Pass Details

Date: 06 December 2020
Orbit: 864 x 980 km, 66.8° (Epoch: 25 January)

Event Time Altitude Azimuth Distance (km) Brightness Sun altitude
Rises 05:22:09 0° 190° (S) 3,618 11.0 -17.8°
Reaches altitude 10° 05:24:45 10° 184° (S) 2,690 10.4 -17.3°
Maximum altitude 05:30:43 46° 113° (ESE) 1,293 9.2 -16.4°
Drops below altitude 10° 05:36:46 10° 43° (NE) 2,740 10.7 -15.3°
Sets 05:39:27 0° 38° (NE) 3,691 11.3 -14.9°
